This is the latest recevied weather packets stored in our database for station/object OK2ILA-10. If no packets are shown the sender has not sent any weather packets the latest 10 day(s).
| Time | Temp. | Humidity | Pressure | Rain* | Wind** | Luminosity | Snow |
|---|---|---|---|---|---|---|---|
| 1777997185 | 22.78° C | 43% | 1008.6 hPa | - | - | - | - |
| 1777997181 | 22.78° C | 43% | 1008.6 hPa | - | - | - | - |
| 1777996585 | 22.78° C | 40% | 1008.7 hPa | - | - | - | - |
| 1777996581 | 22.78° C | 40% | 1008.7 hPa | - | - | - | - |
| 1777995985 | 23.33° C | 37% | 1008.7 hPa | - | - | - | - |
| 1777995980 | 23.33° C | 37% | 1008.7 hPa | - | - | - | - |
| 1777995385 | 23.33° C | 35% | 1008.8 hPa | - | - | - | - |
| 1777995380 | 23.33° C | 35% | 1008.8 hPa | - | - | - | - |
| 1777994785 | 23.33° C | 33% | 1008.7 hPa | - | - | - | - |
| 1777994780 | 23.33° C | 33% | 1008.7 hPa | - | - | - | - |
| 1777994185 | 23.33° C | 33% | 1008.8 hPa | - | - | - | - |
| 1777994180 | 23.33° C | 33% | 1008.8 hPa | - | - | - | - |
| 1777993585 | 23.33° C | 33% | 1008.8 hPa | - | - | - | - |
| 1777993580 | 23.33° C | 33% | 1008.8 hPa | - | - | - | - |
| 1777992986 | 23.33° C | 35% | 1008.9 hPa | - | - | - | - |
| 1777992979 | 23.33° C | 35% | 1008.9 hPa | - | - | - | - |
| 1777992385 | 23.33° C | 36% | 1008.9 hPa | - | - | - | - |
| 1777992379 | 23.33° C | 36% | 1008.9 hPa | - | - | - | - |
| 1777991785 | 23.89° C | 35% | 1008.9 hPa | - | - | - | - |
| 1777991779 | 23.89° C | 35% | 1008.9 hPa | - | - | - | - |
| 1777991187 | 23.89° C | 35% | 1009.1 hPa | - | - | - | - |
| 1777991179 | 23.89° C | 35% | 1009.1 hPa | - | - | - | - |
| 1777990613 | 23.89° C | 35% | 1009.2 hPa | - | - | - | - |
| 1777990609 | 23.89° C | 35% | 1009.2 hPa | - | - | - | - |
| 1777990013 | 23.89° C | 33% | 1009.1 hPa | - | - | - | - |
* Rain since midnight (hover to see other rain measurements)
** Current wind speed in m/s (hover to see current wind gust speed)